Location: *
(53.9538°N, 32.8799°E)
Time: 06:12:37
(UTC+00:00)

Daily predictions for brighter satellites

Satellite Brightness Start Highest point End
(mag) Time Altitude Azimuth Time Altitude Azimuth Time Altitude Azimuth
SL-16 R/B 3.1 16:18:10 10° NNW 16:23:18 33° NE 16:28:26 10° ESE
Okean 1 Rocket 3.5 16:20:43 10° SSE 16:24:43 38° E 16:28:47 10° NNE
CZ-4C R/B 3.5 16:19:34 10° W 16:25:00 42° NNW 16:31:27 10° NE
USA 116 3.6 16:21:01 10° NNE 16:25:10 75° ESE 16:28:47 10° S
Cosmos 2219 Rocket 2.6 16:20:46 10° NW 16:26:20 68° WSW 16:31:53 10° SSE
H-2A R/B 2.9 16:23:21 10° ESE 16:27:37 29° ENE 16:31:59 10° N
Cosmos 2184 Rocket 4.2 16:22:29 10° NNW 16:28:44 84° W 16:35:02 10° S
Cosmos 1707 3.0 16:26:26 10° N 16:30:16 48° ENE 16:34:05 10° SSE
Cosmos 1190 Rocket 4.2 16:26:00 10° NNW 16:31:14 55° ENE 16:36:25 10° SE
Cosmos 1025 Rocket 3.5 16:29:31 10° NNW 16:33:46 67° W 16:38:00 10° S
Okean 2 Rocket 3.9 16:30:43 10° SSW 16:35:09 60° WNW 16:39:39 10° N
COSMOS 2428 3.5 16:32:26 10° NW 16:38:00 57° WSW 16:43:33 10° S
NOSS 0 Rocket 4.1 16:32:20 10° NW 16:38:34 84° WSW 16:44:48 10° SSE
CZ-4 R/B 3.4 16:35:14 10° SSW 16:38:47 33° W 16:42:26 10° NNW
FREGAT/IRIS 2.7 16:36:12 10° SSE 16:38:55 47° ENE 16:41:40 10° N
GP-B 3.1 16:34:55 10° N 16:39:23 74° E 16:43:49 10° S
NOSS 3-4 (A) 4.1 16:33:23 10° NW 16:40:13 71° SW 16:47:43 10° SSE
NOSS 3-4 (C) 4.1 16:33:29 10° NW 16:40:19 71° SW 16:47:49 10° SSE
NOAA 11 4.3 16:35:16 10° SSE 16:40:47 85° WSW 16:46:19 10° NNW
Meteor 2-15 4.4 16:35:04 10° S 16:41:12 77° E 16:47:23 10° NNE
Meteor 2-15 Rocket 4.5 16:35:24 10° S 16:41:27 65° E 16:47:34 10° NNE
Resurs 01 Rocket 3.0 16:38:09 10° ESE 16:41:32 22° ENE 16:44:57 10° N
SL-8 R/B 4.4 16:44:53 10° WSW 16:49:21 40° S 16:53:20 13° ESE
Cosmos 614 Rocket 4.0 16:45:05 10° NNW 16:50:21 76° ENE 16:55:33 10° SSE
Cosmos 1461 2.7 16:46:42 10° SW 16:50:40 72° SE 16:54:38 10° NE
SAR-Lupe-2 4.1 16:47:28 10° NNE 16:50:51 37° E 16:54:11 10° SSE
DMSP B5D1-3 4.5 16:45:57 10° NNE 16:51:05 81° ESE 16:56:11 10° SSW
SJ-6B 3.2 16:47:29 10° SE 16:51:27 49° ENE 16:55:24 10° N
NOSS 3-3 (A) 4.1 16:46:35 10° SW 16:52:42 87° SE 16:59:40 10° NE
NOSS 3-3 (C) 4.1 16:46:41 10° SW 16:52:48 87° SE 16:59:46 10° NE
YAOGAN 1 4.5 16:49:46 10° SSW 16:53:42 33° W 16:57:40 10° NNW
Ariane Rocket 3.4 16:49:08 10° S 16:54:10 66° WSW 16:59:16 10° NNW
Cosmos 1892 Rocket 3.8 16:50:08 10° N 16:54:31 51° ENE 16:58:50 10° SSE
Cosmos 389 Rocket 2.4 16:51:23 10° N 16:54:50 63° ENE 16:58:14 10° SSE
MONITOR-E 4.2 16:52:39 10° S 16:55:26 69° WSW 16:58:15 10° NNW
ADEOS Rocket 4.1 16:49:46 10° NNE 16:56:18 34° E 17:03:08 10° SSE
Cosmos 1544 2.9 16:52:48 10° S 16:56:24 82° E 17:00:02 10° NNE
MOS 1 4.3 16:51:13 10° SSE 16:56:56 89° ENE 17:02:41 10° NNW
Nadezhda 1 Rocket 3.9 16:53:02 10° S 16:59:05 81° E 17:05:14 10° NNE
Cosmos 2227 Rocket 3.1 16:54:52 10° SSE 16:59:27 26° ESE 17:04:05 10° NE
ARGOS 3.5 16:54:30 10° SE 16:59:38 49° ENE 17:04:50 10° N
CZ-2D R/B 4.5 16:56:21 10° S 17:00:00 44° W 17:03:41 10° NNW
Cosmos 407 Rocket 3.5 16:56:24 10° NNW 17:01:35 88° WSW 17:06:43 10° SSE
Cosmos 1626 4.3 17:00:37 10° NE 17:01:50 11° ENE 17:02:35 11° ENE
Cosmos 2219 3.6 16:56:41 10° S 17:02:04 42° ESE 17:07:27 10° NE
Cosmos 1295 Rocket 4.5 16:56:24 10° N 17:02:39 85° E 17:08:46 10° S
GEOS 3 Rocket 4.3 16:57:48 10° SSE 17:02:48 53° SW 17:07:50 10° NW
USA 234 3.4 16:58:04 10° ENE 17:04:37 79° NNW 17:11:12 10° W
Cosmos 2056 Rocket 4.1 17:00:32 10° SSE 17:05:25 35° ESE 17:10:18 10° NE
Okean 1-7 Rocket 3.5 17:03:44 10° N 17:08:11 69° ENE 17:12:37 10° SSE
Cosmos 1939 Rocket 4.1 17:05:38 10° S 17:09:17 41° W 17:13:00 10° NNW
Cosmos 2297 Rocket 2.8 17:04:58 10° SSE 17:09:54 32° ESE 17:14:52 10° NE
HJ-1C 4.5 17:06:43 10° S 17:09:59 47° W 17:13:18 10° NNW
Lacrosse 5 rocket 3.1 17:09:20 10° SSE 17:10:17 13° SSE 17:10:17 13° SSE
USA 186 1.9 17:10:08 10° SSE 17:13:34 90° W 17:17:01 10° NNW
Timation 2 Rocket 4.3 17:09:57 10° SW 17:16:28 75° NW 17:22:44 10° NNE
Cosmos 1624 Rocket 4.3 17:12:10 10° S 17:17:02 43° ESE 17:21:57 10° NE
MetOp-A 4.5 17:14:09 14° SE 17:18:27 47° ENE 17:23:35 10° N
Meteor 1-15 Rocket 4.3 17:13:49 10° S 17:19:31 62° E 17:25:20 10° NNE
FAST 4.2 17:19:34 10° S 17:22:22 72° E 17:25:02 10° NNE
ATLAS 2AS CENTAUR R/B 4.3 17:16:21 10° NW 17:23:10 36° WSW 17:29:32 10° S
Cosmos 1140 Rocket 3.5 17:18:13 10° NNW 17:23:27 86° WSW 17:28:24 11° SSE
Cosmos 1954 Rocket 3.9 17:18:36 10° NNW 17:23:53 78° ENE 17:28:10 15° SSE
Meteor 1-4 Rocket 2.5 17:21:20 10° NNW 17:24:56 80° WSW 17:28:26 10° S
Cosmos 1943 4.5 17:20:06 10° NNW 17:24:58 27° NE 17:28:18 16° E
CZ-2C R/B 3.4 17:23:52 17° SE 17:27:55 53° ENE 17:33:23 10° N
Cosmos 1437 Rocket 2.7 17:24:21 10° N 17:28:08 56° ENE 17:30:17 23° SE
ASTEX 1 3.4 17:23:35 10° N 17:28:31 85° W 17:33:24 10° S
Cosmos 405 Rocket 2.6 17:25:16 10° S 17:28:53 56° E 17:32:33 10° NNE
In-Cosmos 22 4.2 17:23:53 10° NNW 17:29:15 78° W 17:34:42 10° S
Cosmos 2333 Rocket 4.3 17:26:23 10° NW 17:30:59 26° WSW 17:35:36 10° SSW
Spot 2 Rocket 4.1 17:28:36 22° ESE 17:31:10 37° ENE 17:35:48 10° N
BREEZE-M DEB (TANK) 3.6 17:28:25 10° W 17:32:35 68° S 17:39:00 20° ESE
Meteor 1-24 Rocket 3.8 17:28:39 10° N 17:34:23 63° ENE 17:39:01 17° SSE
Cosmos 2237 Rocket 3.0 17:30:49 10° NW 17:36:19 51° WSW 17:41:49 10° S
SPOT 3 Rocket 3.8 17:31:30 10° S 17:36:38 71° WSW 17:41:49 10° NNW
Cosmos 1544 Rocket 3.8 17:34:30 10° SSE 17:38:49 49° E 17:43:07 10° NNE
Cosmos 1455 Rocket 3.1 17:34:52 10° S 17:39:13 59° E 17:43:38 10° NNE
Cosmos 2084 Rocket 4.1 17:35:33 10° S 17:39:33 34° SE 17:41:00 27° E
Cosmos 2341 Rocket 4.4 17:34:39 10° NNW 17:40:52 67° W 17:47:01 10° S
SL-24 R/B 4.4 17:40:08 22° SSE 17:43:05 67° ENE 17:48:13 10° N
Cosmos 2181 Rocket 3.9 17:39:52 10° S 17:46:07 76° E 17:52:31 10° NNE
Cosmos 1674 2.5 17:42:25 10° N 17:46:10 77° ENE 17:47:51 31° SSE
Cosmos 1371 Rocket 3.9 17:43:07 10° SSW 17:48:26 81° ESE 17:53:51 10° NNE
ERBS 2.8 17:46:29 10° WNW 17:49:47 49° SSW 17:50:35 38° S
SPOT 5 4.3 17:49:03 21° ENE 17:50:12 23° NE 17:54:04 10° N
RESURS DK-1 2.5 17:49:40 10° NNW 17:53:47 57° NE 17:54:55 41° ESE
Cosmos 1626 Rocket 3.4 17:50:02 10° N 17:54:22 71° ENE 17:56:12 33° SSE
CZ-2C R/B 3.9 17:50:40 10° NNE 17:55:08 69° WNW 17:59:32 10° SSW
ISS -1.5 17:52:37 10° SSW 17:53:25 15° SSW 17:53:25 15° SSW
Cosmos 1805 3.2 17:55:26 38° SSE 17:56:38 57° E 18:00:28 10° NNE
Cosmos 676 Rocket 4.5 17:51:43 10° NNW 17:56:55 60° WSW 18:00:53 17° S
Cosmos 2218 Rocket 4.1 17:51:22 10° NNW 17:57:48 80° W 18:04:07 10° S
Cosmos 1452 Rocket 3.9 17:58:39 34° SE 17:59:44 38° ESE 18:04:34 10° NE
Cosmos 2366 rocket 4.1 17:53:30 10° NNW 17:59:54 82° W 18:05:57 11° S
Meteor 2-5 Rocket 4.1 17:54:42 10° NNW 18:00:29 69° W 18:06:14 11° S
Cosmos 1825 Rocket 4.4 17:57:20 10° N 18:01:14 31° ENE 18:01:23 31° ENE
Cosmos 1603 4.1 17:57:34 10° NNW 18:03:05 48° NE 18:05:11 33° E
H-2A R/B 2.6 18:02:04 11° S 18:06:49 54° W 18:11:49 10° NNW
SL-16 R/B 2.4 18:02:14 10° NW 18:07:53 69° WSW 18:11:05 27° SSE
Cosmos 1821 Rocket 4.1 18:02:06 10° N 18:08:11 54° ENE 18:10:31 35° SE
Resurs 1-3 4.0 18:05:21 21° S 18:08:13 62° WSW 18:12:36 10° NNW
Transit 2A Rocket 4.5 18:03:55 10° NW 18:08:26 82° SW 18:09:39 47° SSE
Cosmos 1758 Rocket 4.0 18:07:19 10° N 18:11:25 40° ENE 18:11:30 40° ENE
KORONAS-FOTON 4.1 18:09:10 10° NNW 18:12:55 63° W 18:14:16 36° SSW
CZ-4C R/B 3.7 18:09:10 10° WNW 18:15:00 38° N 18:20:20 16° ENE
Cosmos 1602 Rocket 3.4 18:11:06 10° NNW 18:15:30 89° WSW 18:16:46 46° S
Terra 3.1 18:15:34 24° ENE 18:15:49 25° ENE 18:19:38 10° N
Meteor 1-22 Rocket 4.3 18:10:04 10° S 18:16:08 73° E 18:22:14 10° NNE
CZ-2C R/B 3.2 18:12:15 10° NNE 18:17:26 37° E 18:17:29 37° E
Resurs 01 Rocket 1.9 18:15:28 29° S 18:17:39 65° WSW 18:22:06 10° NNW
Cosmos 2082 3.6 18:21:00 10° SSW 18:26:40 67° ESE 18:32:22 10° NE
Cosmos 1850 Rocket 4.0 18:24:19 10° NNW 18:29:30 75° WSW 18:31:06 45° S
SL-14 R/B 3.1 18:25:59 10° N 18:30:01 87° E 18:30:02 87° ESE
SL-8 R/B 4.3 18:26:53 10° WSW 18:31:18 41° SSW 18:31:18 41° SSW
MetOp-B 4.1 18:31:12 43° SSE 18:33:03 86° WSW 18:38:27 10° NNW
Cosmos 1733 3.5 18:35:41 58° NNE 18:35:41 58° NNE 18:38:49 10° NNE
Cosmos 1626 2.5 18:34:02 10° N 18:37:10 60° N 18:37:10 60° N
Cosmos 1766 4.1 18:39:55 26° SW 18:41:47 49° WNW 18:45:36 10° N
ADEOS Rocket 3.7 18:35:04 10° NNE 18:42:15 72° WNW 18:49:56 10° SSW
Cosmos 2227 Rocket 2.4 18:37:23 10° SW 18:43:02 72° NW 18:48:46 10° NNE
Cosmos 2219 4.2 18:40:39 10° WSW 18:46:13 48° NW 18:51:48 10° NNE
Cosmos 2056 Rocket 4.5 18:42:11 10° SW 18:47:27 49° NW 18:52:42 10° NNE
USA 234 3.4 18:44:13 32° E 18:47:29 70° N 18:54:01 10° WNW
Cosmos 1420 Rocket 4.0 18:47:04 10° SSW 18:52:23 81° WNW 18:57:46 10° NNE
Cosmos 2297 Rocket 2.7 18:48:04 10° SW 18:53:41 60° NW 18:59:19 10° NNE
Meteor 2-12 Rocket 4.5 18:52:37 10° NNW 18:58:44 76° W 19:00:31 48° S
ERS-1 Rocket 2.8 19:00:43 84° ESE 19:00:49 85° ENE 19:05:54 10° NNW
SPOT 1/Viking Rocket 3.4 19:05:48 82° S 19:06:02 86° WSW 19:11:15 10° NNW
Cosmos 2263 Rocket 4.2 19:10:09 16° NE 19:10:09 16° NE 19:11:24 10° NE
DMSP B5D2-2 4.4 19:03:19 10° NNE 19:08:35 67° WNW 19:10:36 38° SW
Cosmos 1934 Rocket 3.8 19:03:15 10° N 19:09:25 89° E 19:10:19 67° S
Cosmos 1943 3.0 19:04:02 10° NNW 19:09:47 89° ENE 19:10:06 81° SE
Meteor 1-21 Rocket 4.4 19:04:01 10° NNW 19:09:55 76° W 19:10:55 61° SSW
Spot 2 Rocket 4.4 19:08:48 35° SW 19:10:08 42° W 19:14:55 10° NNW
Cosmos 1486 Rocket 4.3 19:05:39 10° NNW 19:10:34 54° NE 19:10:34 54° NE
Cosmos 1470 4.3 19:21:05 33° N 19:21:05 33° N 19:23:26 10° N
CARTOSAT-1 4.3 19:22:21 50° NNW 19:22:21 50° NNW 19:25:35 10° NNW
Landsat 7 4.2 19:21:56 61° W 19:21:56 61° W 19:26:22 10° NNW
Cosmos 1953 Rocket 4.2 19:18:59 10° NNW 19:22:37 54° NW 19:22:37 54° NW
SPOT 5 3.1 19:28:18 67° NW 19:28:18 67° NW 19:32:50 10° NNW
RESURS DK-1 4.4 19:28:15 10° WNW 19:30:49 22° W 19:30:49 22° W
Thor Agena Rocket 4.5 19:27:44 10° NNE 19:31:12 39° NE 19:31:12 39° NE
Cosmos 1241 Rocket 4.3 19:26:40 10° NW 19:33:02 87° NE 19:33:09 86° E
Meteor 1-11 4.4 19:29:10 10° N 19:34:11 66° NNE 19:34:11 66° NNE
Cosmos 1953 4.3 19:39:45 26° N 19:39:45 26° N 19:41:41 10° N
MOS 1 Rocket 4.3 19:32:37 10° NNE 19:36:12 44° NNE 19:36:12 44° NNE
ARGOS Delta rocket 4.5 19:39:46 55° NNE 19:39:46 55° NNE 19:43:50 10° N
Cosmos 2285 Rocket 4.0 19:33:07 10° NNW 19:39:35 75° ENE 19:39:38 74° ENE
Cosmos 968 Rocket 4.1 19:36:00 10° NNW 19:40:16 49° NNE 19:40:16 49° NNE
Cosmos 1452 Rocket 4.5 19:38:51 23° WSW 19:41:50 45° NW 19:46:53 10° NNE
Cosmos 1605 Rocket 4.0 19:44:29 10° NNW 19:50:53 72° W 19:51:06 71° WSW
SL-16 R/B 4.5 19:48:07 10° WNW 19:50:59 14° W 19:52:59 12° WSW
Terra 2.8 19:54:27 46° NW 19:54:27 46° NW 19:57:58 10° NNW
CZ-2C R/B 3.5 19:52:32 10° N 19:57:50 47° WNW 19:58:59 41° W
Cosmos 839 Rocket 4.3 19:53:44 10° NW 19:59:54 55° NE 20:00:03 55° NE
CZ-4C R/B 3.0 19:58:01 10° NW 20:04:40 65° NNE 20:05:29 61° ENE
Cosmos 2100 Rocket 4.2 20:01:02 10° N 20:06:42 66° NNE 20:06:42 66° NNE
Cosmos 2082 Rocket 3.9 20:18:04 10° NNW 20:22:45 25° NNE 20:23:44 24° NE
Cosmos 2227 Rocket 4.4 20:23:36 10° W 20:28:07 24° NNW 20:32:40 10° NNE
Mayak 1.4 20:25:36 10° NNE 20:26:22 15° NNE 20:26:22 15° NNE
SJ 16-02 4.2 20:29:42 10° NNE 20:30:16 10° NNE 20:30:40 10° NE
USA 234 3.4 20:31:34 65° W 20:31:34 65° W 20:37:07 10° WNW
Cosmos 2173 Rocket 4.2 20:24:50 10° NNW 20:30:21 68° NNW 20:30:21 68° NNW
Cosmos 1459 Rocket 4.4 20:36:08 10° NNW 20:40:59 57° NNW 20:40:59 57° NNW
COSMOS 2406 4.1 20:42:43 10° NNW 20:47:05 47° N 20:47:05 47° N
Cosmos 2263 Rocket 3.2 20:51:48 43° N 20:51:48 43° N 20:55:46 10° NNE
Cosmos 1802 Rocket 4.4 20:46:39 10° NNW 20:51:49 60° NW 20:51:49 60° NW
Cosmos 1833 Rocket 3.8 20:55:34 10° NNW 20:59:53 38° NNE 20:59:53 38° NNE
CZ-4C R/B 3.8 21:46:35 10° NW 21:50:38 36° WNW 21:50:38 36° WNW
ATLAS CENTAUR R/B 3.8 21:55:27 24° NNE 21:55:27 24° NNE 21:57:52 10° NE
SL-16 R/B 3.8 21:54:35 31° ENE 21:55:28 32° NE 22:00:53 10° N
Cosmos 1844 Rocket 3.8 22:01:59 41° NNE 22:01:59 41° NNE 22:05:38 10° NNE
Mayak 1.6 22:01:56 10° NNW 22:02:57 14° NNW 22:02:57 14° NNW
Cosmos 2082 Rocket 3.4 22:02:02 10° NNW 22:05:33 38° NNW 22:05:33 38° NNW
SJ 16-02 3.8 22:06:00 10° NNW 22:07:38 20° N 22:07:38 20° N
Resurs 1-4 Rocket 4.2 22:20:08 10° NE 22:23:03 19° ENE 22:23:03 19° ENE
Cosmos 2263 Rocket 4.2 22:33:29 19° NW 22:35:11 22° NNW 22:39:32 10° NNE
H-2A R/B 4.4 22:39:12 21° NNE 22:39:12 21° NNE 22:41:01 10° N
Cosmos 2278 Rocket 2.9 22:54:59 50° NE 22:54:59 50° NE 22:59:08 10° NNE
Tsikada Rocket 4.2 23:06:30 66° NE 23:06:30 66° NE 23:11:59 10° NNE
CZ-2D R/B 3.3 23:01:31 10° NNE 23:05:40 35° ENE 23:05:40 35° ENE
Cosmos 1943 Rocket 4.3 23:08:04 16° ESE 23:08:21 16° E 23:11:40 10° ENE
ATLAS 5 CENTAUR R/B 3.0 23:18:51 40° NE 23:18:51 40° NE 23:22:15 10° NE
USA 267 3.2 23:13:37 10° ENE 23:20:10 76° NNW 23:20:49 70° WNW
Cosmos 1634 Rocket 4.0 23:14:28 10° N 23:20:22 77° N 23:20:22 77° N
CENTAUR R/B 4.3 23:25:18 18° ESE 23:26:25 19° ESE 23:30:58 10° ENE
MOS 1-B Rocket 4.2 23:21:30 10° NNE 23:28:01 61° E 23:28:11 61° ESE
ATLAS CENTAUR R/B 3.9 23:31:39 17° NW 23:33:49 22° N 23:37:28 10° NE
Lacrosse 5 2.7 23:38:56 46° ENE 23:38:56 46° ENE 23:42:37 10° E
SL-16 R/B 2.7 23:39:41 59° NW 23:39:41 59° NW 23:44:57 10° NNW
Cosmos 2208 Rocket 4.4 23:40:23 60° ENE 23:40:23 60° ENE 23:44:51 10° NNE
Cosmos 1844 Rocket 4.3 23:43:38 22° NW 23:44:48 24° NNW 23:49:21 10° NNE
ADEOS II 3.5 23:42:41 10° NNE 23:47:21 31° E 23:48:33 28° ESE
Cosmos 2082 Rocket 4.5 23:46:48 10° NW 23:47:21 12° NW 23:47:21 12° NW
USA 238 DEB 3.9 23:50:56 55° SSE 23:51:34 57° SE 23:58:22 10° NE
USA 238 3.9 23:51:01 54° SSE 23:51:40 57° SE 23:58:28 10° NE
IRS-1D 4.0 23:46:43 10° NNE 23:51:59 54° E 23:52:13 53° ESE
